Regional Weather Roundup
Issued by NWS Goodland, KS

Home | Current Version | Previous Version | Graphics & Text | Print | Product List | Glossary Off
Versions: 1 2 3 4 5 6 7 8 9 10 11 12 13 14 15 16 17 18 19 20 21 22 23 24 25 26 27 28 29 30 31 32 33 34 35 36 37 38 39 40 41 42 43 44 45 46 47 48 49 50

000
ASUS43 KGLD 171359
RWRGLD

GOODLAND FORECAST AREA HOURLY WEATHER ROUNDUP
NATIONAL WEATHER SERVICE GOODLAND KS
800 AM MDT THU APR 17 2014

...OFFICIAL OBSERVATIONS...

CITY           SKY/WX    TMP DP  RH WIND       PRES   REMARKS
GOODLAND KS    CLOUDY    31  29  92 E5        30.24R FOG
HILL CITY KS   CLOUDY    34  26  72 E7        30.30R
IMPERIAL NEB   CLOUDY    31  27  85 E6        30.24R FOG
MCCOOK NEB     CLOUDY    31  25  78 E7        30.29R
AKRON CO       FOG       33  33 100 S14       30.14R VSB 1
BURLINGTON CO  CLOUDY    34  30  85 SE10      30.21R
LIMON CO       CLOUDY    37  34  89 S13       30.17R
$$

...UNOFFICIAL OBSERVATIONS...

CITY           SKY/WX    TMP DP  RH WIND       PRES   REMARKS
COLBY KS       CLOUDY    32  30  93 E5        30.27
GOVE KS          N/A     33  32  96 NE8         N/A
LENORA KS        N/A     32  32 100 N6          N/A
LEOTI KS         N/A     36  32  85 NE7         N/A
NORTON KS      CLOUDY    30  25  80 NE6       30.28R
SHARON SPRINGS   N/A     34  30  85 E6          N/A
WAKEENEY KS      N/A     33  25  72 MISG        N/A
KIT CARSON CO    N/A     39  35  86 MISG        N/A
$$



USA.gov is the U.S. government's official web portal to all federal, state and local government web resources and services.